Zurück zum Katalog

STARLINK-31250

AktivKommunikationVLEO
NORAD 58839·PAYLOAD·🇺🇸 United States

Gestartet Jan 24, 2024 von Vandenberg Space Force Base

Loading…

Nächste Überflüge (nächste 24 Stunden)

TLE

AktuellSource: CelesTrak SupGP

Epoche: Sep 15, 2026, 02:09 UTC

1 58839C 24017P   26258.09006944 -.00006103  00000+0 -18031-3 0  2587
2 58839  53.1595  30.6989 0001093  79.3709 139.4550 15.34393319    15

Verfolge STARLINK-31250 in Echtzeit mit AllMySat

Download on the App Store